Weather History for Lyndonville, VT

Change the Weather History Date:

Wednesday, May 28, 2014

  Actual Average (K1V4) Record (K1V4)
Temperature  
Mean Temperature 48 °F 60 °F  
Max Temperature 55 °F 72 °F 93 °F (1978)
Min Temperature 42 °F 48 °F 30 °F (1994)
Degree Days  
Heating Degree Days 16    
Cooling Degree Days 0 1  
Month to date cooling degree days 11  
Year to date cooling degree days 12  
Moisture  
Dew Point 43 °F    
Average Humidity 80    
Maximum Humidity 90    
Minimum Humidity 62    
Precipitation  
Precipitation 0.00 in 0.12 in 1.50 in (1951)
Month to date precipitation 3.01  
Year to date precipitation 13.06  
Sea Level Pressure  
Sea Level Pressure 30.08 in    
Wind  
Wind Speed 2 mph (ESE)    
Max Wind Speed 7 mph    
Max Gust Speed -    
Visibility 9 miles    
Events Rain    
T = Trace of Precipitation, MM = Missing Value Source: NWS Daily Summary

Daily Weather History Graph

Daily Weather History Graph

Search for Another Location

Airport:

Trip Planner

Search our weather history database for the weather conditions in past years. The results will help you decide how hot, cold, wet, or windy it might be!

Date:

Astronomy

May. 28, 2014 Rise Set
Actual Time 5:08 AM EDT 8:22 PM EDT
Civil Twilight 4:33 AM EDT 8:58 PM EDT
Nautical Twilight 3:47 AM EDT 9:44 PM EDT
Astronomical Twilight 2:51 AM EDT 10:41 PM EDT
Moon 5:15 AM EDT (5/28) 8:15 PM EDT (5/28)
Length of Visible Light 16h 24m
Length of Day
15h 13m
Waning Crescent, 0% of the Moon is Illuminated
May 28
Waning Crescent
May 28
New
Jun 5
First Quarter
Jun 13
Full
Jun 19
Last Quarter

Hourly Weather History & Observations

Time (EDT) Temp. Dew Point Humidity Pressure Visibility Wind Dir Wind Speed Gust Speed Precip Events Conditions
12:15 AM 48.6 °F 45.7 °F 90% 29.94 in 7.0 mi Calm Calm - N/A Rain Light Rain
12:35 AM 48.4 °F 45.7 °F 90% 29.94 in 10.0 mi Calm Calm - N/A Rain Light Rain
12:55 AM 48.4 °F 45.5 °F 90% 29.94 in 10.0 mi South 4.6 mph - N/A   Overcast
1:15 AM 48.4 °F 45.5 °F 90% 29.93 in 10.0 mi South 4.6 mph - N/A   Overcast
1:35 AM 48.4 °F 45.5 °F 90% 29.94 in 10.0 mi South 3.5 mph - N/A   Overcast
1:55 AM 48.2 °F 44.8 °F 88% 29.94 in 10.0 mi South 5.8 mph - N/A   Overcast
2:15 AM 47.5 °F 43.9 °F 87% 29.94 in 10.0 mi South 5.8 mph - N/A   Overcast
2:35 AM 47.5 °F 43.7 °F 87% 29.95 in 10.0 mi South 3.5 mph - N/A   Overcast
2:55 AM 47.5 °F 43.7 °F 87% 29.94 in 10.0 mi South 3.5 mph - N/A   Overcast
3:15 AM 47.3 °F 43.7 °F 87% 29.95 in 10.0 mi South 3.5 mph - N/A   Overcast
3:35 AM 47.3 °F 43.5 °F 87% 29.95 in 10.0 mi Calm Calm - N/A   Overcast
3:55 AM 46.8 °F 43.2 °F 87% 29.95 in 10.0 mi Calm Calm - N/A   Overcast
4:15 AM 46.6 °F 43.2 °F 88% 29.96 in 10.0 mi Calm Calm - N/A   Overcast
4:35 AM 46.6 °F 43.0 °F 87% 29.96 in 10.0 mi South 3.5 mph - N/A   Overcast
5:15 AM 46.4 °F 42.4 °F 86% 29.96 in 10.0 mi Calm Calm - N/A   Overcast
5:35 AM 46.4 °F 42.3 °F 85% 29.96 in 10.0 mi Calm Calm - N/A   Overcast
5:55 AM 46.4 °F 42.8 °F 87% 29.97 in 10.0 mi Calm Calm - N/A   Overcast
6:15 AM 46.8 °F 42.4 °F 85% 29.98 in 10.0 mi Calm Calm - N/A   Overcast
6:35 AM 47.5 °F 43.2 °F 85% 29.98 in 10.0 mi Calm Calm - N/A   Overcast
6:55 AM 47.5 °F 42.8 °F 84% 29.99 in 10.0 mi Calm Calm - N/A   Overcast
7:15 AM 47.5 °F 42.8 °F 84% 30.00 in 10.0 mi Calm Calm - N/A   Overcast
7:35 AM 48.0 °F 42.8 °F 82% 30.01 in 10.0 mi Calm Calm - N/A   Overcast
7:55 AM 47.8 °F 43.2 °F 84% 30.01 in 10.0 mi Calm Calm - N/A   Overcast
8:15 AM 47.5 °F 43.2 °F 85% 30.02 in 10.0 mi Calm Calm - N/A   Overcast
8:35 AM 47.5 °F 43.3 °F 86% 30.04 in 10.0 mi NE 4.6 mph - N/A   Overcast
8:55 AM 47.3 °F 42.8 °F 84% 30.05 in 10.0 mi NE 4.6 mph - N/A   Overcast
9:15 AM 47.5 °F 43.0 °F 84% 30.05 in 10.0 mi NE 3.5 mph - N/A   Overcast
9:35 AM 47.5 °F 43.2 °F 85% 30.06 in 7.0 mi NE 3.5 mph - N/A Rain Light Rain
9:55 AM 47.3 °F 43.7 °F 87% 30.07 in 3.0 mi Calm Calm - N/A Rain Light Rain
10:15 AM 47.5 °F 43.9 °F 87% 30.07 in 4.0 mi Calm Calm - N/A Rain Rain
10:35 AM 47.7 °F 43.7 °F 86% 30.08 in 4.0 mi Calm Calm - N/A Rain Rain
10:55 AM 47.7 °F 43.7 °F 86% 30.09 in 5.0 mi Calm Calm - N/A   Light Drizzle
11:15 AM 48.4 °F 44.2 °F 86% 30.10 in 7.0 mi Calm Calm - N/A   Overcast
11:35 AM 49.1 °F 44.8 °F 85% 30.11 in 7.0 mi Calm Calm - N/A   Overcast
11:55 AM 49.1 °F 45.1 °F 86% 30.11 in 7.0 mi NE 4.6 mph - N/A   Overcast
12:15 PM 49.6 °F 44.8 °F 83% 30.11 in 10.0 mi NE 3.5 mph - N/A   Overcast
12:35 PM 50.9 °F 45.0 °F 80% 30.12 in 7.0 mi Calm Calm - N/A   Overcast
12:55 PM 52.0 °F 45.1 °F 77% 30.12 in 10.0 mi East 4.6 mph - N/A   Overcast
1:15 PM 52.7 °F 45.0 °F 75% 30.12 in 10.0 mi East 6.9 mph - N/A   Overcast
1:35 PM 51.8 °F 43.9 °F 74% 30.13 in 10.0 mi East 5.8 mph - N/A   Overcast
1:55 PM 51.6 °F 43.3 °F 73% 30.14 in 10.0 mi ENE 5.8 mph - N/A   Overcast
2:15 PM 52.7 °F 44.1 °F 72% 30.14 in 10.0 mi East 4.6 mph - N/A   Overcast
2:35 PM 52.7 °F 43.9 °F 72% 30.15 in 10.0 mi ENE 3.5 mph - N/A   Overcast
2:55 PM 53.6 °F 43.5 °F 69% 30.15 in 10.0 mi Calm Calm - N/A   Overcast
3:15 PM 54.5 °F 43.9 °F 67% 30.15 in 10.0 mi ESE 4.6 mph - N/A   Overcast
3:35 PM 54.5 °F 43.0 °F 65% 30.15 in 10.0 mi Calm Calm - N/A   Overcast
3:55 PM 54.0 °F 43.7 °F 68% 30.15 in 10.0 mi Calm Calm - N/A   Overcast
4:15 PM 54.7 °F 43.9 °F 67% 30.15 in 10.0 mi Calm Calm - N/A   Overcast
4:35 PM 54.7 °F 44.4 °F 68% 30.15 in 10.0 mi Calm Calm - N/A   Overcast
4:55 PM 54.5 °F 44.8 °F 70% 30.16 in 10.0 mi Calm Calm - N/A   Overcast
5:15 PM 54.3 °F 45.7 °F 73% 30.16 in 10.0 mi Calm Calm - N/A   Overcast
5:35 PM 54.5 °F 45.0 °F 70% 30.16 in 10.0 mi Calm Calm - N/A   Overcast
5:55 PM 55.4 °F 43.9 °F 65% 30.16 in 10.0 mi Calm Calm - N/A   Overcast
6:15 PM 55.2 °F 43.7 °F 65% 30.18 in 10.0 mi Calm Calm - N/A   Overcast
6:35 PM 54.9 °F 41.9 °F 62% 30.17 in 10.0 mi Calm Calm - N/A   Overcast
6:55 PM 54.5 °F 41.9 °F 62% 30.17 in 10.0 mi Calm Calm - N/A   Overcast
7:15 PM 53.6 °F 42.8 °F 67% 30.18 in 10.0 mi Calm Calm - N/A   Overcast
7:35 PM 53.6 °F 41.9 °F 65% 30.18 in 10.0 mi Calm Calm - N/A   Scattered Clouds
7:55 PM 51.3 °F 41.9 °F 70% 30.18 in 10.0 mi Calm Calm - N/A   Clear
8:15 PM 51.3 °F 41.9 °F 70% 30.18 in 10.0 mi Calm Calm - N/A   Clear
8:35 PM 50.2 °F 41.7 °F 73% 30.19 in 10.0 mi Calm Calm - N/A   Clear
8:55 PM 50.2 °F 41.2 °F 71% 30.19 in 10.0 mi Calm Calm - N/A   Clear
9:15 PM 49.3 °F 41.5 °F 75% 30.20 in 10.0 mi Calm Calm - N/A   Clear
9:35 PM 48.4 °F 41.4 °F 77% 30.21 in 10.0 mi Calm Calm - N/A   Clear
9:55 PM 45.1 °F 41.7 °F 88% 30.21 in 10.0 mi Calm Calm - N/A   Clear
10:15 PM 44.6 °F 41.4 °F 88% 30.22 in 10.0 mi Calm Calm - N/A   Clear
10:35 PM 44.1 °F 41.2 °F 90% 30.22 in 10.0 mi Calm Calm - N/A   Clear
10:55 PM 43.9 °F 41.0 °F 90% 30.23 in 10.0 mi Calm Calm - N/A   Clear
11:15 PM 42.8 °F 40.1 °F 90% 30.23 in 10.0 mi Calm Calm - N/A   Clear
11:55 PM 42.4 °F 39.7 °F 90% 30.23 in 1.0 mi Calm Calm - N/A   Mist